FW6002 Iowa Colony TX US current weather conditions

sailwx.info

Wind from 094 at 0 knots gusting 2

Air temperature 15.0° C
Dewpoint 14.4° C

Last reported at 2020-Jan-29 02:06 UTC.
Time now 2020-Jan-29 02:33 UTC

Location: N 29°26' W 095°27'.
View on Google Maps.

See reports from other nearby stations

  
Tides and Currents Weather Stations Pressure Air Temp Water Temp Dewpoint Dewpoint Depression Visibility Wind Speed Wind Dir Waves Ship Positions
date/time (UTC)wind fromknots sea level pressurealtimeterstation pressurevisibilityair tempwater tempwave heightnotes
2020-Jan-29 02:06 094 0 gusting 2 15.0
2020-Jan-29 02:03 095 15.0
2020-Jan-29 01:55 095 15.0
2020-Jan-29 01:51 095 0 gusting 2 15.0
2020-Jan-29 01:47 15.0
2020-Jan-29 01:41 100 0 gusting 2 15.0
2020-Jan-29 01:36 105 0 gusting 2 15.0
2020-Jan-29 01:33 079 0 gusting 2 15.0
2020-Jan-29 01:26 094 0 gusting 2 15.0
2020-Jan-29 01:20 087 0 gusting 2 15.6
2020-Jan-29 01:16 072 0 gusting 2 15.6
2020-Jan-29 01:10 070 0 gusting 2 15.6
2020-Jan-29 01:05 064 0 gusting 1 15.6
2020-Jan-29 01:02 060 0 gusting 1 15.6
2020-Jan-29 00:56 060 0 gusting 2 15.6
2020-Jan-29 00:50 060 0 gusting 2 15.6
2020-Jan-29 00:47 357 16.1
2020-Jan-29 00:40 357 0 gusting 1 16.1
2020-Jan-29 00:36 16.1
2020-Jan-29 00:32 16.1
2020-Jan-29 00:26 356 16.1
2020-Jan-29 00:20 356 16.7
2020-Jan-29 00:17 356 16.7
2020-Jan-29 00:10 16.7
2020-Jan-29 00:07 16.7
2020-Jan-29 00:02 17.2
2020-Jan-28 23:56 356 17.2
2020-Jan-28 23:50 350 17.2
2020-Jan-28 23:48 352 0 gusting 3 17.2
2020-Jan-28 23:40 352 0 gusting 3 17.8
2020-Jan-28 23:35 356 0 gusting 2 17.8
2020-Jan-28 23:32 356 17.8
2020-Jan-28 23:26 356 17.8
2020-Jan-28 23:20 357 1 gusting 3 17.8
2020-Jan-28 23:17 335 0 gusting 2 17.8
2020-Jan-28 23:11 338 0 gusting 2 17.8
2020-Jan-28 23:05 340 0 gusting 2 18.3
2020-Jan-28 23:03 340 0 gusting 2 18.3
2020-Jan-28 22:55 18.3
2020-Jan-28 22:51 18.3
2020-Jan-28 22:46 056 18.3
2020-Jan-28 22:41 056 0 gusting 2 18.3
2020-Jan-28 22:35 103 18.3
2020-Jan-28 22:32 18.3
2020-Jan-28 22:26 072 1 gusting 3 18.3
2020-Jan-28 22:20 079 18.3
2020-Jan-28 22:17 18.3
2020-Jan-28 22:11 259 18.3
2020-Jan-28 22:05 264 18.3
2020-Jan-28 22:01 17.8
2020-Jan-28 21:55 17.8
2020-Jan-28 21:50 266 17.8
2020-Jan-28 21:46 17.8
2020-Jan-28 21:41 17.8
2020-Jan-28 21:35 267 17.2
2020-Jan-28 21:33 265 1 gusting 3 17.2
2020-Jan-28 21:25 283 0 gusting 2 17.2
2020-Jan-28 21:20 315 0 gusting 2 17.2
2020-Jan-28 21:19 245 17.2
2020-Jan-28 21:11 245 17.2
2020-Jan-28 21:05 297 0 gusting 1 17.2
2020-Jan-28 21:02 17.2
2020-Jan-28 20:55 181 17.2
2020-Jan-28 20:50 212 0 gusting 3 17.2
2020-Jan-28 20:48 218 0 gusting 2 16.7
2020-Jan-28 20:41 295 16.7
2020-Jan-28 20:35 297 0 gusting 6 16.7
2020-Jan-28 20:34 259 1 gusting 6 16.7
2020-Jan-28 20:26 191 1 gusting 3 16.7
2020-Jan-28 20:21 203 1 gusting 4 17.2
2020-Jan-28 20:17 145 1 gusting 6 17.2
2020-Jan-28 20:10 179 2 gusting 6 17.2
2020-Jan-28 20:06 143 2 gusting 8 17.2
2020-Jan-28 20:02 186 3 gusting 8 17.2
2020-Jan-28 19:56 070 2 gusting 8 17.2
2020-Jan-28 19:50 141 3 gusting 8 17.8
2020-Jan-28 19:46 131 3 gusting 10 17.8
2020-Jan-28 19:41 056 4 gusting 13 17.8
2020-Jan-28 19:36 098 5 gusting 13 17.8
2020-Jan-28 19:32 106 4 gusting 10 18.3
2020-Jan-28 19:25 121 5 gusting 13 18.3
2020-Jan-28 19:20 013 4 gusting 13 18.3
2020-Jan-28 19:17 148 5 gusting 12 18.3
2020-Jan-28 19:10 126 5 gusting 12 18.3
2020-Jan-28 19:05 110 5 gusting 9 17.8
2020-Jan-28 18:56 095 5 gusting 11 18.3
2020-Jan-28 18:50 103 4 gusting 11 18.3
2020-Jan-28 18:49 174 5 gusting 9 18.3
2020-Jan-28 18:40 051 4 gusting 9 17.8
2020-Jan-28 18:35 110 4 gusting 10 17.8
2020-Jan-28 18:32 075 4 gusting 10 17.8
2020-Jan-28 18:25 133 4 gusting 10 17.8
2020-Jan-28 18:20 031 5 gusting 10 17.8
2020-Jan-28 18:17 068 4 gusting 10 17.8
2020-Jan-28 18:10 099 5 gusting 11 17.8
2020-Jan-28 18:05 144 5 gusting 11 17.8
2020-Jan-28 18:01 338 5 gusting 10 17.2
2020-Jan-28 17:56 044 4 gusting 11 17.2
2020-Jan-28 17:50 096 5 gusting 13 17.2
2020-Jan-28 17:46 119 5 gusting 13 17.2
2020-Jan-28 17:40 101 6 gusting 13 17.2
2020-Jan-28 17:35 119 6 gusting 13 17.2
2020-Jan-28 17:32 110 6 gusting 13 17.2
2020-Jan-28 17:25 062 6 gusting 11 17.2
2020-Jan-28 17:20 085 5 gusting 11 16.7
2020-Jan-28 17:17 138 5 gusting 12 16.1
2020-Jan-28 17:11 096 5 gusting 12 16.1
2020-Jan-28 17:06 113 6 gusting 10 16.1
2020-Jan-28 17:03 090 4 gusting 8 16.1
2020-Jan-28 16:55 094 4 gusting 11 15.6
2020-Jan-28 16:51 163 4 gusting 11 15.6
2020-Jan-28 16:47 037 5 gusting 10 15.6
2020-Jan-28 16:40 091 6 gusting 11 16.1
2020-Jan-28 16:35 041 6 gusting 12 15.6
2020-Jan-28 16:31 069 6 gusting 12 15.6
2020-Jan-28 16:25 094 6 gusting 11 15.0
2020-Jan-28 16:20 089 6 gusting 13 15.0
2020-Jan-28 16:17 060 6 gusting 13 14.4
2020-Jan-28 16:10 076 6 gusting 13 14.4
2020-Jan-28 16:05 078 7 gusting 13 14.4
2020-Jan-28 16:01 091 6 gusting 13 14.4
2020-Jan-28 15:56 083 7 gusting 13 13.9
2020-Jan-28 15:51 092 6 gusting 14 13.9
2020-Jan-28 15:49 094 7 gusting 14 13.9
2020-Jan-28 15:41 051 8 gusting 13 13.9
2020-Jan-28 15:35 105 6 gusting 10 13.9
2020-Jan-28 15:33 087 5 gusting 10 13.9
2020-Jan-28 15:26 055 5 gusting 9 13.9
2020-Jan-28 15:20 068 3 gusting 6 13.9
2020-Jan-28 15:17 077 3 gusting 6 13.9
2020-Jan-28 15:11 084 2 gusting 6 13.9
2020-Jan-28 15:05 056 1 gusting 5 13.9
2020-Jan-28 15:02 041 1 gusting 4 13.9
2020-Jan-28 14:55 078 1 gusting 4 13.9
2020-Jan-28 14:51 352 1 gusting 6 13.9
2020-Jan-28 14:47 001 2 gusting 6 13.9
2020-Jan-28 14:41 352 2 gusting 6 13.9
2020-Jan-28 14:36 328 1 gusting 6 13.9
2020-Jan-28 14:31 074 1 gusting 5 13.9
2020-Jan-28 14:26 075 0 gusting 6 13.9
2020-Jan-28 14:20 010 2 gusting 6 13.9
2020-Jan-28 14:16 358 1 gusting 6 13.9
2020-Jan-28 14:10 340 2 gusting 6 13.9
2020-Jan-28 14:05 340 1 gusting 6 13.9
2020-Jan-28 14:02 345 2 gusting 7 13.9
2020-Jan-28 13:55 341 3 gusting 7 13.9
2020-Jan-28 13:50 335 3 gusting 9 13.9
2020-Jan-28 13:46 324 4 gusting 9 14.4
2020-Jan-28 13:41 356 3 gusting 7 14.4
2020-Jan-28 13:35 359 3 gusting 7 14.4
2020-Jan-28 13:32 002 1 gusting 4 14.4
2020-Jan-28 13:25 359 1 gusting 4 14.4
2020-Jan-28 13:20 291 1 gusting 5 14.4
2020-Jan-28 13:16 358 2 gusting 5 14.4
2020-Jan-28 13:10 323 1 gusting 4 14.4
2020-Jan-28 13:05 338 1 gusting 4 14.4
2020-Jan-28 13:03 342 1 gusting 4 14.4
2020-Jan-28 12:55 330 1 gusting 4 14.4
2020-Jan-28 12:51 347 0 gusting 4 14.4
2020-Jan-28 12:50 335 0 gusting 4 14.4
2020-Jan-28 12:41 023 1 gusting 4 14.4
2020-Jan-28 12:35 327 1 gusting 5 15.0
2020-Jan-28 12:32 350 2 gusting 6 15.0
2020-Jan-28 12:25 360 2 gusting 6 15.0
2020-Jan-28 12:21 360 2 gusting 6 15.0
2020-Jan-28 12:18 359 2 gusting 6 15.0
2020-Jan-28 12:11 001 2 gusting 6 15.0
2020-Jan-28 12:05 344 3 gusting 6 15.0
2020-Jan-28 12:02 356 2 gusting 6 15.0
2020-Jan-28 11:55 359 3 gusting 6 15.0
2020-Jan-28 11:50 325 0 gusting 5 15.0
2020-Jan-28 11:46 301 1 gusting 5 15.0
2020-Jan-28 11:40 292 1 gusting 5 15.0
2020-Jan-28 11:36 028 2 gusting 5 15.0
2020-Jan-28 11:31 072 2 gusting 5 14.4
2020-Jan-28 11:25 065 3 gusting 5 14.4
2020-Jan-28 11:21 039 2 gusting 5 14.4
2020-Jan-28 11:16 084 1 gusting 5 14.4
2020-Jan-28 11:10 099 1 gusting 5 14.4
2020-Jan-28 11:05 360 2 gusting 5 14.4
2020-Jan-28 11:02 349 2 gusting 5 14.4
2020-Jan-28 10:56 330 1 gusting 4 14.4
2020-Jan-28 10:50 359 1 gusting 3 15.0
2020-Jan-28 10:47 357 1 gusting 3 15.0
2020-Jan-28 10:40 336 0 gusting 4 15.0
2020-Jan-28 10:35 070 1 gusting 4 15.0
2020-Jan-28 10:31 060 1 gusting 4 15.0
2020-Jan-28 10:25 095 1 gusting 4 15.0
2020-Jan-28 10:21 084 1 gusting 3 15.0
2020-Jan-28 10:19 067 0 gusting 3 15.0
2020-Jan-28 10:10 072 1 gusting 3 15.0
2020-Jan-28 10:05 041 1 gusting 3 14.4
2020-Jan-28 10:02 075 0 gusting 3 14.4
2020-Jan-28 09:55 110 0 gusting 3 15.0
2020-Jan-28 09:50 055 0 gusting 3 15.0
2020-Jan-28 09:48 066 0 gusting 3 15.0
2020-Jan-28 09:41 071 15.0
2020-Jan-28 09:35 15.0
2020-Jan-28 09:31 15.0
2020-Jan-28 09:26 074 1 gusting 4 15.0
2020-Jan-28 09:20 058 1 gusting 4 15.0
2020-Jan-28 09:16 089 2 gusting 4 15.0
2020-Jan-28 09:10 060 1 gusting 4 15.0
2020-Jan-28 09:06 044 1 gusting 4 15.0
2020-Jan-28 09:03 068 1 gusting 5 14.4
2020-Jan-28 08:56 087 1 gusting 6 14.4
2020-Jan-28 08:51 061 2 gusting 6 14.4
2020-Jan-28 08:46 063 2 gusting 6 14.4
2020-Jan-28 08:41 084 1 gusting 6 14.4
2020-Jan-28 08:35 092 2 gusting 6 14.4
2020-Jan-28 08:32 101 2 gusting 6 14.4
2020-Jan-28 08:26 079 2 gusting 5 14.4
2020-Jan-28 08:21 020 2 gusting 6 14.4
2020-Jan-28 08:18 118 2 gusting 6 14.4
2020-Jan-28 08:10 050 2 gusting 6 14.4
2020-Jan-28 08:05 146 2 gusting 7 14.4
2020-Jan-28 08:02 110 3 gusting 8 14.4
2020-Jan-28 07:55 090 3 gusting 8 13.9
2020-Jan-28 07:51 068 3 gusting 7 13.9
2020-Jan-28 07:47 103 2 gusting 6 13.9
2020-Jan-28 07:40 094 3 gusting 6 13.9
2020-Jan-28 07:35 066 4 gusting 6 13.9
2020-Jan-28 07:32 064 4 gusting 7 13.9
2020-Jan-28 07:25 054 5 gusting 8 13.9
2020-Jan-28 07:20 103 4 gusting 8 13.9
2020-Jan-28 07:17 086 4 gusting 7 13.9
2020-Jan-28 07:11 059 5 gusting 7 13.9
2020-Jan-28 07:06 081 4 gusting 6 13.9
2020-Jan-28 07:01 058 4 gusting 6 13.9
2020-Jan-28 06:56 075 3 gusting 6 13.9
2020-Jan-28 06:50 084 2 gusting 6 13.9
2020-Jan-28 06:49 097 2 gusting 6 13.9
2020-Jan-28 06:40 098 2 gusting 7 13.9
2020-Jan-28 06:36 103 3 gusting 7 13.9
2020-Jan-28 06:31 081 3 gusting 6 13.9
2020-Jan-28 06:25 077 2 gusting 6 13.9
2020-Jan-28 06:20 099 2 gusting 6 13.9
2020-Jan-28 06:16 085 3 gusting 7 13.9
2020-Jan-28 06:11 068 4 gusting 7 13.9
2020-Jan-28 06:05 108 4 gusting 6 13.9
2020-Jan-28 06:01 070 4 gusting 6 13.9
2020-Jan-28 05:55 052 3 gusting 6 13.9
2020-Jan-28 05:50 078 3 gusting 6 13.9
2020-Jan-28 05:47 067 2 gusting 6 13.9
2020-Jan-28 05:40 074 2 gusting 6 13.9
2020-Jan-28 05:35 056 2 gusting 6 13.9
2020-Jan-28 05:32 077 2 gusting 6 13.9
2020-Jan-28 05:25 070 3 gusting 5 13.9
2020-Jan-28 05:20 076 2 gusting 5 13.9
2020-Jan-28 05:17 080 2 gusting 6 13.9
2020-Jan-28 05:10 056 2 gusting 6 13.9
2020-Jan-28 05:06 081 2 gusting 7 13.9
2020-Jan-28 05:02 091 4 gusting 7 13.9
2020-Jan-28 04:56 074 3 gusting 6 13.9
2020-Jan-28 04:50 081 2 gusting 6 13.9
2020-Jan-28 04:47 069 2 gusting 6 13.9
2020-Jan-28 04:40 090 3 gusting 6 13.9
2020-Jan-28 04:35 106 2 gusting 5 13.9
2020-Jan-28 04:31 103 2 gusting 5 13.3
2020-Jan-28 04:26 080 1 gusting 6 13.3
2020-Jan-28 04:20 043 2 gusting 6 13.3
2020-Jan-28 04:16 089 2 gusting 6 13.3
2020-Jan-28 04:10 027 2 gusting 6 13.3
2020-Jan-28 04:05 107 3 gusting 6 13.3
2020-Jan-28 04:02 084 3 gusting 6 13.3
2020-Jan-28 03:56 113 3 gusting 6 13.3
2020-Jan-28 03:51 095 2 gusting 6 13.3
2020-Jan-28 03:46 044 3 gusting 6 13.3
2020-Jan-28 03:40 082 2 gusting 6 13.3
2020-Jan-28 03:36 070 2 gusting 6 13.3
2020-Jan-28 03:35 056 2 gusting 6 13.3
2020-Jan-28 03:26 071 2 gusting 6 13.3
2020-Jan-28 03:21 074 2 gusting 6 13.3
2020-Jan-28 03:17 094 2 gusting 6 13.3
2020-Jan-28 03:11 118 2 gusting 6 13.3
2020-Jan-28 03:06 096 2 gusting 6 13.3
2020-Jan-28 03:02 112 3 gusting 7 13.3
2020-Jan-28 02:55 108 3 gusting 7 13.3
2020-Jan-28 02:50 134 1 gusting 6 13.3
2020-Jan-28 02:47 100 2 gusting 6 13.3
2020-Jan-28 02:40 087 2 gusting 6 13.3
2020-Jan-28 02:36 130 2 gusting 6 13.3
2020-Jan-28 02:32 076 2 gusting 6 13.3
2020-Jan-28 02:26 086 3 gusting 6 13.3
2020-Jan-28 02:20 100 2 gusting 5 13.3
2020-Jan-28 02:17 097 2 gusting 7 13.3
2020-Jan-28 02:10 096 3 gusting 7 13.3
2020-Jan-28 02:06 088 2 gusting 7 13.3
2020-Jan-28 02:02 155 3 gusting 7 13.3
2020-Jan-28 01:55 036 3 gusting 8 13.3
2020-Jan-28 01:51 133 4 gusting 8 13.3
2020-Jan-28 01:47 099 3 gusting 7 12.8
2020-Jan-28 01:40 195 3 gusting 7 12.8
2020-Jan-28 01:35 051 3 gusting 10 12.8
2020-Jan-28 01:32 096 5 gusting 10 12.8
2020-Jan-28 01:25 132 4 gusting 9 12.8
2020-Jan-28 01:21 058 4 gusting 9 12.8
2020-Jan-28 01:16 084 3 gusting 6 13.3
2020-Jan-28 01:11 090 3 gusting 7 13.3
2020-Jan-28 01:05 093 5 gusting 8 13.3
2020-Jan-28 01:01 150 4 gusting 8 13.3
2020-Jan-28 00:55 105 3 gusting 6 13.3
2020-Jan-28 00:50 152 2 gusting 6 13.3
2020-Jan-28 00:46 086 3 gusting 7 13.3
2020-Jan-28 00:40 099 4 gusting 7 13.3
2020-Jan-28 00:35 091 3 gusting 8 13.3
2020-Jan-28 00:32 062 5 gusting 8 13.3
2020-Jan-28 00:25 108 4 gusting 8 13.3
2020-Jan-28 00:20 076 4 gusting 8 13.3
2020-Jan-28 00:18 069 4 gusting 8 13.3
2020-Jan-28 00:11 067 4 gusting 7 13.3
2020-Jan-28 00:06 075 4 gusting 8 13.3
2020-Jan-28 00:02 075 3 gusting 8 13.3
2020-Jan-27 23:56 063 3 gusting 6 13.3
2020-Jan-27 23:51 060 3 gusting 6 13.3
2020-Jan-27 23:46 020 3 gusting 6 13.3
2020-Jan-27 23:40 090 4 gusting 8 13.9
2020-Jan-27 23:35 081 4 gusting 8 13.9
2020-Jan-27 23:32 079 3 gusting 9 13.9
2020-Jan-27 23:26 065 5 gusting 9 14.4
2020-Jan-27 23:20 113 3 gusting 7 14.4
2020-Jan-27 23:16 105 4 gusting 8 14.4
2020-Jan-27 23:10 057 5 gusting 8 14.4
2020-Jan-27 23:05 083 4 gusting 8 15.0
2020-Jan-27 23:02 094 5 gusting 9 15.0
2020-Jan-27 22:55 049 4 gusting 9 15.0
2020-Jan-27 22:50 075 5 gusting 9 15.6
2020-Jan-27 22:47 076 4 gusting 9 15.6
2020-Jan-27 22:40 121 5 gusting 8 16.1
2020-Jan-27 22:36 090 4 gusting 8 16.1
2020-Jan-27 22:32 046 3 gusting 8 16.7
2020-Jan-27 22:25 079 4 gusting 8 16.7
2020-Jan-27 22:20 096 5 gusting 8 17.2
2020-Jan-27 22:17 078 5 gusting 8 17.2
2020-Jan-27 22:10 063 5 gusting 8 17.2
2020-Jan-27 22:05 070 4 gusting 8 17.8
2020-Jan-27 22:02 057 4 gusting 8 18.3
2020-Jan-27 21:56 075 2 gusting 6 18.3
2020-Jan-27 21:50 125 2 gusting 6 18.3
2020-Jan-27 21:47 125 3 gusting 6 18.3
2020-Jan-27 21:41 094 2 gusting 6 18.9
2020-Jan-27 21:35 061 3 gusting 6 18.9
2020-Jan-27 21:32 121 2 gusting 6 18.9
2020-Jan-27 21:25 078 1 gusting 6 18.9
2020-Jan-27 21:21 113 2 gusting 6 19.4
2020-Jan-27 21:17 098 2 gusting 6 19.4
2020-Jan-27 21:10 072 2 gusting 6 19.4
2020-Jan-27 21:05 091 1 gusting 6 19.4
2020-Jan-27 21:03 137 2 gusting 5 19.4
2020-Jan-27 20:55 117 1 gusting 5 19.4
2020-Jan-27 20:50 191 1 gusting 5 19.4
2020-Jan-27 20:47 167 1 gusting 5 19.4
2020-Jan-27 20:40 072 1 gusting 5 18.9
2020-Jan-27 20:36 141 1 gusting 5 19.4
2020-Jan-27 20:32 223 2 gusting 6 19.4
2020-Jan-27 20:25 072 1 gusting 6 18.9
2020-Jan-27 20:20 093 3 gusting 7 18.9
2020-Jan-27 20:17 079 3 gusting 7 19.4
2020-Jan-27 20:11 078 1 gusting 5 19.4
2020-Jan-27 20:06 001 2 gusting 5 18.9
2020-Jan-27 20:01 105 1 gusting 6 18.9
2020-Jan-27 19:55 086 1 gusting 6 18.9
2020-Jan-27 19:50 068 0 gusting 4 19.4
2020-Jan-27 19:47 086 1 gusting 4 18.9
2020-Jan-27 19:40 136 0 gusting 6 18.9
2020-Jan-27 19:35 085 2 gusting 6 18.9
2020-Jan-27 19:33 062 2 gusting 5 18.9
2020-Jan-27 19:25 110 2 gusting 5 18.9
2020-Jan-27 19:20 137 0 gusting 4 18.9
2020-Jan-27 19:17 095 0 gusting 3 18.9
2020-Jan-27 19:11 117 0 gusting 2 18.3
2020-Jan-27 19:05 088 0 gusting 4 18.3
2020-Jan-27 19:02 170 1 gusting 4 18.3
2020-Jan-27 18:56 129 0 gusting 4 18.3
2020-Jan-27 18:51 184 17.2
2020-Jan-27 18:46 110 1 gusting 4 17.8
2020-Jan-27 18:40 025 17.8
2020-Jan-27 18:36 17.8
2020-Jan-27 18:32 127 0 gusting 4 17.8
2020-Jan-27 18:26 17.2
2020-Jan-27 18:21 026 0 gusting 3 16.7
2020-Jan-27 18:18 092 16.7
2020-Jan-27 18:11 101 1 gusting 5 17.2
2020-Jan-27 18:05 015 2 gusting 5 16.7
2020-Jan-27 18:03 102 2 gusting 5 16.7
2020-Jan-27 17:55 101 0 gusting 3 16.1
2020-Jan-27 17:50 328 0 gusting 4 15.6
2020-Jan-27 17:47 079 1 gusting 5 15.6
2020-Jan-27 17:40 068 2 gusting 5 15.6
2020-Jan-27 17:35 022 0 gusting 5 15.6
2020-Jan-27 17:33 094 2 gusting 6 15.6
2020-Jan-27 17:25 082 2 gusting 6 15.6
2020-Jan-27 17:20 084 2 gusting 6 15.0
2020-Jan-27 17:17 067 1 gusting 4 15.0
2020-Jan-27 17:11 081 1 gusting 6 15.0
2020-Jan-27 17:06 046 2 gusting 6 15.0
2020-Jan-27 17:01 035 0 gusting 5 15.0
2020-Jan-27 16:55 044 1 gusting 5 15.0
2020-Jan-27 16:50 086 1 gusting 4 15.0
2020-Jan-27 16:47 077 1 gusting 5 14.4
2020-Jan-27 16:40 097 2 gusting 5 14.4
2020-Jan-27 16:36 042 1 gusting 5 14.4
2020-Jan-27 16:32 050 1 gusting 5 14.4
2020-Jan-27 16:26 055 2 gusting 4 14.4
2020-Jan-27 16:21 111 0 gusting 4 14.4
2020-Jan-27 16:17 039 0 gusting 4 14.4
2020-Jan-27 16:10 051 0 gusting 4 14.4
2020-Jan-27 16:06 355 0 gusting 4 13.9
2020-Jan-27 16:01 068 1 gusting 4 13.9
2020-Jan-27 15:56 071 0 gusting 4 13.9
2020-Jan-27 15:50 353 0 gusting 3 13.9
2020-Jan-27 15:46 357 0 gusting 3 13.9
2020-Jan-27 15:40 350 0 gusting 3 13.9
2020-Jan-27 15:36 057 13.3
2020-Jan-27 15:32 082 0 gusting 5 13.9
2020-Jan-27 15:26 330 0 gusting 4 13.9
2020-Jan-27 15:20 061 1 gusting 4 13.3
2020-Jan-27 15:17 072 0 gusting 2 13.9
2020-Jan-27 15:10 345 13.3
2020-Jan-27 15:06 360 1 gusting 3 13.3
2020-Jan-27 15:02 128 13.3
2020-Jan-27 14:56 130 13.3
2020-Jan-27 14:50 073 1 gusting 4 13.3
2020-Jan-27 14:47 063 0 gusting 4 13.3
2020-Jan-27 14:40 082 1 gusting 4 13.3
2020-Jan-27 14:35 046 1 gusting 4 13.3
2020-Jan-27 14:31 083 0 gusting 3 13.3
2020-Jan-27 14:26 085 0 gusting 3 13.3
2020-Jan-27 14:20 033 1 gusting 3 13.3
2020-Jan-27 14:16 085 0 gusting 3 13.3
2020-Jan-27 14:11 074 13.3
2020-Jan-27 14:06 13.3
2020-Jan-27 14:03 065 2 gusting 4 13.3
2020-Jan-27 13:55 081 1 gusting 3 13.3
2020-Jan-27 13:51 066 1 gusting 4 13.3
2020-Jan-27 13:47 075 0 gusting 4 13.3
2020-Jan-27 13:40 066 0 gusting 2 13.3
2020-Jan-27 13:36 079 13.3
2020-Jan-27 13:32 064 0 gusting 2 13.3
2020-Jan-27 13:25 037 0 gusting 3 13.3
2020-Jan-27 13:20 053 1 gusting 3 12.8
2020-Jan-27 13:17 094 0 gusting 3 12.8
2020-Jan-27 13:10 100 0 gusting 3 12.8
2020-Jan-27 13:06 091 0 gusting 2 12.8
2020-Jan-27 13:01 340 0 gusting 2 12.8
2020-Jan-27 12:56 340 0 gusting 2 12.8
2020-Jan-27 12:51 057 0 gusting 3 12.8
2020-Jan-27 12:46 056 1 gusting 3 12.8
2020-Jan-27 12:41 12.8
2020-Jan-27 12:35 064 1 gusting 3 12.8
2020-Jan-27 12:33 069 1 gusting 4 12.8
2020-Jan-27 12:25 074 1 gusting 5 12.8
2020-Jan-27 12:21 108 2 gusting 5 12.8
2020-Jan-27 12:18 072 1 gusting 4 12.8
2020-Jan-27 12:10 113 0 gusting 4 12.8
2020-Jan-27 12:05 116 1 gusting 4 12.8
2020-Jan-27 12:03 102 0 gusting 3 12.8
2020-Jan-27 11:55 089 0 gusting 4 12.8
2020-Jan-27 11:50 101 1 gusting 4 13.3
2020-Jan-27 11:47 089 1 gusting 3 13.3
2020-Jan-27 11:40 069 1 gusting 4 13.3
2020-Jan-27 11:36 075 2 gusting 4 13.3
2020-Jan-27 11:32 091 0 gusting 2 13.3
2020-Jan-27 11:25 128 0 gusting 3 13.3
2020-Jan-27 11:20 112 1 gusting 3 13.3
2020-Jan-27 11:17 113 0 gusting 4 13.3
2020-Jan-27 11:10 096 0 gusting 4 13.3
2020-Jan-27 11:05 105 1 gusting 4 13.3
2020-Jan-27 11:01 094 1 gusting 4 13.9
2020-Jan-27 10:56 089 1 gusting 2 13.9
2020-Jan-27 10:51 105 13.9
2020-Jan-27 10:47 075 13.9
2020-Jan-27 10:40 075 13.3
2020-Jan-27 10:36 336 0 gusting 2 13.3
2020-Jan-27 10:32 087 13.3
2020-Jan-27 10:25 088 1 gusting 4 13.3
2020-Jan-27 10:20 084 1 gusting 3 13.3
2020-Jan-27 10:18 060 0 gusting 4 13.3
2020-Jan-27 10:11 086 1 gusting 4 13.9
2020-Jan-27 10:05 067 2 gusting 5 13.9
2020-Jan-27 10:02 064 2 gusting 5 13.9
2020-Jan-27 09:56 063 1 gusting 5 13.9
2020-Jan-27 09:51 089 1 gusting 5 13.9
2020-Jan-27 09:47 089 2 gusting 5 13.9
2020-Jan-27 09:40 321 1 gusting 4 13.9
2020-Jan-27 09:36 050 0 gusting 3 13.9
2020-Jan-27 09:31 025 0 gusting 3 13.9
2020-Jan-27 09:25 037 0 gusting 4 13.9
2020-Jan-27 09:20 108 1 gusting 4 13.9
2020-Jan-27 09:19 088 1 gusting 3 13.9
2020-Jan-27 09:10 073 13.9
2020-Jan-27 09:06 068 0 gusting 2 13.9
2020-Jan-27 09:03 13.9
2020-Jan-27 08:56 081 0 gusting 3 13.9
2020-Jan-27 08:50 056 0 gusting 2 13.9
2020-Jan-27 08:47 073 0 gusting 3 13.9
2020-Jan-27 08:40 077 0 gusting 3 13.9
2020-Jan-27 08:35 086 0 gusting 3 13.9
2020-Jan-27 08:32 060 0 gusting 3 13.9
2020-Jan-27 08:26 077 1 gusting 3 13.9
2020-Jan-27 08:21 088 0 gusting 4 13.9
2020-Jan-27 08:17 058 1 gusting 4 14.4
2020-Jan-27 08:10 104 1 gusting 3 14.4
2020-Jan-27 08:06 078 0 gusting 2 14.4
2020-Jan-27 08:02 066 0 gusting 4 14.4
2020-Jan-27 07:56 065 0 gusting 4 14.4
2020-Jan-27 07:51 060 0 gusting 3 14.4
2020-Jan-27 07:48 079 0 gusting 4 14.4
2020-Jan-27 07:40 001 1 gusting 4 14.4
2020-Jan-27 07:36 043 0 gusting 2 14.4
2020-Jan-27 07:31 065 0 gusting 2 14.4
2020-Jan-27 07:25 058 0 gusting 3 14.4
2020-Jan-27 07:20 084 1 gusting 3 14.4
2020-Jan-27 07:18 103 0 gusting 2 14.4
2020-Jan-27 07:11 059 0 gusting 2 14.4
2020-Jan-27 07:06 083 1 gusting 3 14.4
2020-Jan-27 07:02 082 1 gusting 3 14.4
2020-Jan-27 06:55 068 0 gusting 2 14.4
2020-Jan-27 06:50 077 14.4
2020-Jan-27 06:47 013 14.4
2020-Jan-27 06:41 14.4
2020-Jan-27 06:36 352 0 gusting 2 14.4
2020-Jan-27 06:33 020 0 gusting 1 13.9
2020-Jan-27 06:25 023 13.9
2020-Jan-27 06:21 14.4
2020-Jan-27 06:16 077 0 gusting 2 14.4
2020-Jan-27 06:11 13.9
2020-Jan-27 06:05 13.9
2020-Jan-27 06:02 072 13.3
2020-Jan-27 05:56 13.3
2020-Jan-27 05:51 12.8
2020-Jan-27 05:48 12.8
2020-Jan-27 05:40 12.8
2020-Jan-27 05:35 12.8
2020-Jan-27 05:31 12.8
2020-Jan-27 05:26 072 13.3
2020-Jan-27 05:20 13.3
2020-Jan-27 05:16 13.3
2020-Jan-27 05:11 13.3
2020-Jan-27 05:05 13.3
2020-Jan-27 05:01 13.3
2020-Jan-27 04:55 13.3
2020-Jan-27 04:50 13.3
2020-Jan-27 04:48 13.3
2020-Jan-27 04:40 13.3
2020-Jan-27 04:35 13.3
2020-Jan-27 04:32 13.3
2020-Jan-27 04:26 13.9
2020-Jan-27 04:20 13.9
2020-Jan-27 04:17 13.9
2020-Jan-27 04:10 13.9
2020-Jan-27 04:05 13.9
2020-Jan-27 03:56 14.4
2020-Jan-27 03:50 14.4
2020-Jan-27 03:49 14.4
2020-Jan-27 03:41 15.0
2020-Jan-27 03:35 15.0
2020-Jan-27 03:32 15.0
2020-Jan-27 03:25 072 15.0
2020-Jan-27 03:20 15.6
2020-Jan-27 03:16 15.6
2020-Jan-27 03:10 072 15.6
2020-Jan-27 03:05 072 0 gusting 1 15.6
2020-Jan-27 03:02 072 15.6
2020-Jan-27 02:56 072 0 gusting 1 15.6
2020-Jan-27 02:51 072 15.6
2020-Jan-27 02:47 072 15.6
2020-Jan-27 02:40 072 15.6
2020-Jan-27 02:35 072 0 gusting 2 16.1
2020-Jan-27 02:31 065 0 gusting 2 16.1
2020-Jan-27 02:25 088 0 gusting 2 16.1
2020-Jan-27 02:21 088 1 gusting 2 16.1
2020-Jan-27 02:17 090 0 gusting 2 16.1
2020-Jan-27 02:11 074 0 gusting 2 16.1
2020-Jan-27 02:06 077 0 gusting 2 16.1
2020-Jan-27 02:01 075 0 gusting 2 16.1